Friday Harbor, WA
on Friday, November 23, 2012

Friday
Previous Day Next Day
Daily Summary
 ActualAverageRecord
Temperature
Mean Temperature °F °F  
Max Temperature 48°F 46°F 53°F (1997)
Min Temperature 42°F 37°F 15°F (2010)
Degree Days
Heating Degree Days 20    
Moisture
Dew Point 44°F   
Average Humidity 92    
Maximum Humidity 100    
Minimum Humidity 68    
Precipitation
Precipitation 0.08 in in in ()
Wind
Wind Speed 11 mph   
Max Wind Speed 25 mph   
Max Gust Speed 34 mph   
Visibility 7 miles   
Events Rain   
Averages and records for this station are not official NWS values.
Key: T is trace of precipitation, MM is missing value
Source: NWS Daily Summary
Seasonal Weather Averages
Time(PST)TemperatureDew PointHumidity Pressure Visibility Wind DirectionWind SpeedGust SpeedPrecipitationEvents Conditions
12:53 AM 48.0°F 37.9°F 68% 30.09 in 10.0 miles ESE 21.9 mph 31.1 mph N/A   Overcast
1:53 AM 48.9°F 39.0°F 69% 30.07 in 10.0 miles ESE 25.3 mph 33.4 mph N/A   Overcast
2:53 AM 46.9°F 41.0°F 80% 30.07 in 7.0 miles ESE 20.7 mph 31.1 mph 0.00 in Rain Light Rain
3:53 AM 46.9°F 41.0°F 80% 30.03 in 10.0 miles SE 25.3 mph 34.5 mph 0.01 in Rain Light Rain
4:53 AM 46.9°F 41.0°F 80% 30.03 in 10.0 miles SE 18.4 mph 33.4 mph 0.01 in Rain Light Rain
5:53 AM 46.9°F 42.1°F 83% 30.03 in 10.0 miles SE 20.7 mph 33.4 mph 0.00 in Rain Light Rain
6:53 AM 46.9°F 42.1°F 83% 30.04 in 10.0 miles SE 20.7 mph 29.9 mph 0.00 in   Overcast
7:53 AM 46.9°F 43.0°F 86% 30.05 in 10.0 miles SE 16.1 mph 26.5 mph 0.01 in   Overcast
8:53 AM 46.9°F 44.1°F 90% 30.05 in 10.0 miles SE 18.4 mph 27.6 mph 0.00 in Rain Light Rain
9:29 AM 46.4°F 44.6°F 93% 30.06 in 10.0 miles SE 13.8 mph 21.9 mph 0.00 in   Mostly Cloudy
9:53 AM 46.9°F 44.1°F 90% 30.06 in 10.0 miles SE 13.8 mph 20.7 mph 0.00 in   Overcast
10:53 AM 48.0°F 44.1°F 86% 30.06 in 10.0 miles SE 11.5 mph - N/A   Overcast
11:45 AM 48.2°F 46.4°F 93% 30.06 in 2.0 miles SE 6.9 mph - 0.00 in Rain Light Rain
11:53 AM 48.0°F 46.0°F 93% 30.06 in 3.0 miles ESE 6.9 mph - 0.00 in Rain Light Rain
12:09 PM 48.2°F 46.4°F 93% 30.05 in 2.5 miles East 5.8 mph - 0.00 in Rain Light Rain
12:13 PM 48.2°F 46.4°F 93% 30.05 in 3.0 miles East 4.6 mph - 0.00 in Rain Light Rain
12:22 PM 48.2°F 46.4°F 93% 30.04 in 6.0 miles ENE 4.6 mph - 0.00 in   Overcast
12:31 PM 48.2°F 46.4°F 93% 30.04 in 10.0 miles East 5.8 mph - 0.00 in   Overcast
12:53 PM 48.0°F 46.0°F 93% 30.05 in 5.0 miles Calm Calm - 0.01 in Rain Rain
1:33 PM 48.2°F 46.4°F 93% 30.03 in 2.5 miles East 4.6 mph - 0.00 in Rain Light Rain
1:44 PM 48.2°F 46.4°F 93% 30.04 in 6.0 miles ESE 3.5 mph - 0.00 in   Overcast
1:53 PM 48.9°F 46.9°F 93% 30.03 in 5.0 miles East 3.5 mph - 0.00 in Rain Light Rain
2:39 PM 48.2°F 46.4°F 93% 30.04 in 10.0 miles SSW 3.5 mph - 0.00 in   Overcast
2:46 PM 48.2°F 46.4°F 93% 30.04 in 10.0 miles Calm Calm - 0.00 in   Overcast
2:53 PM 48.9°F 48.0°F 97% 30.05 in 10.0 miles Calm Calm - 0.00 in   Overcast
3:53 PM 48.0°F 46.9°F 96% 30.04 in 10.0 miles Calm Calm - N/A   Unknown
4:11 PM 48.2°F 46.4°F 93% 30.04 in 10.0 miles Calm Calm - N/A   Overcast
4:28 PM 48.2°F 46.4°F 93% 30.03 in 9.0 miles SE 4.6 mph - N/A   Overcast
4:43 PM 48.2°F 46.4°F 93% 30.03 in 10.0 miles SE 3.5 mph - N/A   Overcast
4:53 PM 48.0°F 46.9°F 96% 30.03 in 10.0 miles ESE 3.5 mph - N/A   Overcast
5:21 PM 48.2°F 46.4°F 93% 30.03 in 10.0 miles Calm Calm - N/A   Overcast
5:53 PM 48.0°F 46.9°F 96% 30.04 in 10.0 miles Calm Calm - N/A   Overcast
6:53 PM 46.9°F 46.0°F 97% 30.05 in 10.0 miles Calm Calm - N/A   Overcast
7:53 PM 48.0°F 46.0°F 93% 30.06 in 5.0 miles Calm Calm - 0.00 in Rain Light Rain
8:14 PM 48.2°F 46.4°F 93% 30.06 in 2.5 miles Calm Calm - 0.03 in Rain Light Rain
8:18 PM 48.2°F 46.4°F 93% 30.06 in 5.0 miles Calm Calm - 0.03 in Rain Light Rain
8:26 PM 46.4°F 46.4°F 100% 30.06 in 2.5 miles NE 3.5 mph - 0.03 in Rain Light Rain
8:44 PM 46.4°F 46.4°F 100% 30.07 in 9.0 miles Calm Calm - 0.03 in   Overcast
8:53 PM 46.0°F 45.0°F 96% 30.07 in 5.0 miles Calm Calm - 0.03 in   Overcast
8:56 PM 44.6°F 44.6°F 100% 30.07 in 1.5 miles Calm Calm - N/A   Overcast
9:11 PM 44.6°F 44.6°F 100% 30.08 in 3.0 miles Calm Calm - N/A   Overcast
9:22 PM 44.6°F 44.6°F 100% 30.08 in 8.0 miles Calm Calm - 0.01 in   Mostly Cloudy
9:26 PM 44.6°F 42.8°F 93% 30.08 in 1.8 miles Calm Calm - 0.01 in   Mostly Cloudy
9:29 PM 44.6°F 42.8°F 93% 30.08 in 0.8 miles Calm Calm - 0.01 in   Mostly Cloudy
9:43 PM 42.8°F 42.8°F 100% 30.08 in 1.0 miles Calm Calm - 0.01 in   Mostly Cloudy
9:47 PM 42.8°F 41.0°F 93% 30.08 in 3.0 miles Calm Calm - 0.01 in   Mostly Cloudy
9:53 PM 42.1°F 41.0°F 96% 30.09 in 6.0 miles Calm Calm - 0.01 in   Scattered Clouds
10:17 PM 44.6°F 42.8°F 93% 30.09 in 2.5 miles Calm Calm - N/A   Clear
10:25 PM 44.6°F 42.8°F 93% 30.10 in 7.0 miles Calm Calm - N/A   Scattered Clouds
10:53 PM 43.0°F 42.1°F 97% 30.11 in 10.0 miles Calm Calm - N/A   Clear
11:53 PM 42.1°F 39.9°F 92% 30.13 in 10.0 miles Variable 3.5 mph - N/A   Clear
Moon Phase
Nov. 23 Nov. 28 Dec. 06 Dec. 13 Dec. 20
Sunrise:07:32 AM (PST) Moon Rise:01:58 PM (PST)11/23
Sunset:04:24 PM (PST) Moon Set:02:38 AM (PST)11/23

Copyright © 2014 The Weather Underground, Inc.